When you browse on this site, cookies collect data to enhance your experience and personalize the content and advertising you see.
Visit our Privacy Policy to learn more. By continuing to use the site, you agree to this use of cookies and data.
  • En España
  • Lista de países
  • Para 7 días
  • Temperatura del agua
  • Mapa Satelital
  • El tiempo en el mapa
  • Informadores
  • user-avatar
    Iniciar sesión

    Tiempo cada hora Malanville

    Hoy, 17 Diciembre, Lunes

    Tiempo Temperatura Precipitaciones Viento Presión Humedad
    00:00 +27°C° 0 mm 3 mps 746 mmHg 16%
    01:00 +26°C° 0 mm 3 mps 745 mmHg 17%
    02:00 +25°C° 0 mm 3 mps 745 mmHg 18%
    03:00 +25°C° 0 mm 3 mps 745 mmHg 18%
    04:00 +24°C° 0 mm 3 mps 746 mmHg 18%
    05:00 +24°C° 0 mm 3 mps 746 mmHg 18%
    06:00 +22°C° 0 mm 4 mps 746 mmHg 19%
    07:00 +26°C° 0 mm 4 mps 746 mmHg 16%
    08:00 +28°C° 0 mm 5 mps 747 mmHg 14%
    09:00 +30°C° 0 mm 6 mps 747 mmHg 11%
    10:00 +33°C° 0 mm 6 mps 747 mmHg 10%
    11:00 +35°C° 0 mm 6 mps 746 mmHg 9%
    12:00 +39°C° 0 mm 5 mps 746 mmHg 8%
    13:00 +39°C° 0 mm 5 mps 745 mmHg 8%
    14:00 +40°C° 0 mm 4 mps 744 mmHg 8%
    15:00 +40°C° 0 mm 4 mps 744 mmHg 8%
    16:00 +37°C° 0 mm 4 mps 744 mmHg 9%
    17:00 +35°C° 0 mm 3 mps 744 mmHg 10%
    18:00 +33°C° 0 mm 3 mps 744 mmHg 11%
    19:00 +30°C° 0 mm 3 mps 745 mmHg 12%
    20:00 +29°C° 0 mm 4 mps 745 mmHg 12%
    21:00 +28°C° 0 mm 4 mps 746 mmHg 13%
    22:00 +28°C° 0 mm 4 mps 746 mmHg 13%
    23:00 +27°C° 0 mm 4 mps 746 mmHg 14%

    Mañana, 18 Diciembre, Martes

    Tiempo Temperatura Precipitaciones Viento Presión Humedad
    00:00 +26°C° 0 mm 4 mps 746 mmHg 14%
    01:00 +25°C° 0 mm 4 mps 746 mmHg 15%
    02:00 +25°C° 0 mm 4 mps 745 mmHg 16%
    03:00 +23°C° 0 mm 4 mps 745 mmHg 17%
    04:00 +22°C° 0 mm 3 mps 745 mmHg 17%
    05:00 +22°C° 0 mm 3 mps 746 mmHg 18%
    06:00 +21°C° 0 mm 3 mps 746 mmHg 19%
    07:00 +23°C° 0 mm 4 mps 746 mmHg 17%
    08:00 +27°C° 0 mm 5 mps 747 mmHg 14%
    09:00 +29°C° 0 mm 5 mps 747 mmHg 12%
    10:00 +32°C° 0 mm 5 mps 747 mmHg 11%
    11:00 +35°C° 0 mm 5 mps 746 mmHg 10%
    12:00 +37°C° 0 mm 5 mps 746 mmHg 8%
    13:00 +37°C° 0 mm 4 mps 745 mmHg 8%
    14:00 +38°C° 0 mm 4 mps 744 mmHg 8%
    15:00 +40°C° 0 mm 4 mps 743 mmHg 8%
    16:00 +36°C° 0 mm 4 mps 744 mmHg 10%
    17:00 +34°C° 0 mm 3 mps 744 mmHg 11%
    18:00 +31°C° 0 mm 3 mps 744 mmHg 12%
    19:00 +30°C° 0 mm 3 mps 745 mmHg 13%
    20:00 +29°C° 0 mm 3 mps 745 mmHg 14%
    21:00 +28°C° 0 mm 3 mps 746 mmHg 15%
    22:00 +27°C° 0 mm 3 mps 746 mmHg 15%
    23:00 +26°C° 0 mm 3 mps 746 mmHg 16%

    Pasado mañana, 19 Diciembre, Miércoles

    Tiempo Temperatura Precipitaciones Viento Presión Humedad
    00:00 +26°C° 0 mm 3 mps 745 mmHg 16%
    01:00 +25°C° 0 mm 3 mps 745 mmHg 17%
    02:00 +24°C° 0 mm 3 mps 745 mmHg 17%
    03:00 +24°C° 0 mm 3 mps 745 mmHg 18%
    04:00 +22°C° 0 mm 3 mps 745 mmHg 18%
    05:00 +21°C° 0 mm 3 mps 745 mmHg 18%
    06:00 +21°C° 0 mm 3 mps 746 mmHg 18%
    07:00 +23°C° 0 mm 4 mps 746 mmHg 16%
    08:00 +27°C° 0 mm 5 mps 747 mmHg 14%
    09:00 +29°C° 0 mm 5 mps 747 mmHg 13%
    10:00 +32°C° 0 mm 5 mps 747 mmHg 11%
    11:00 +34°C° 0 mm 5 mps 746 mmHg 10%
    12:00 +37°C° 0 mm 4 mps 746 mmHg 9%
    13:00 +37°C° 0 mm 4 mps 745 mmHg 9%
    14:00 +38°C° 0 mm 3 mps 744 mmHg 9%
    15:00 +38°C° 0 mm 3 mps 743 mmHg 9%
    16:00 +36°C° 0 mm 3 mps 743 mmHg 10%
    17:00 +34°C° 0 mm 3 mps 744 mmHg 12%
    18:00 +31°C° 0 mm 3 mps 744 mmHg 13%
    19:00 +30°C° 0 mm 3 mps 744 mmHg 14%
    20:00 +29°C° 0 mm 3 mps 745 mmHg 14%
    21:00 +28°C° 0 mm 3 mps 746 mmHg 15%
    22:00 +27°C° 0 mm 3 mps 745 mmHg 15%
    23:00 +26°C° 0 mm 3 mps 745 mmHg 15%

    20 Diciembre, Jueves

    Tiempo Temperatura Precipitaciones Viento Presión Humedad
    00:00 +25°C° 0 mm 3 mps 745 mmHg 16%
    01:00 +25°C° 0 mm 3 mps 745 mmHg 16%
    02:00 +24°C° 0 mm 3 mps 745 mmHg 16%
    03:00 +24°C° 0 mm 3 mps 744 mmHg 17%
    04:00 +22°C° 0 mm 3 mps 745 mmHg 17%
    05:00 +21°C° 0 mm 3 mps 745 mmHg 17%
    06:00 +21°C° 0 mm 3 mps 745 mmHg 17%
    07:00 +23°C° 0 mm 4 mps 746 mmHg 15%
    08:00 +27°C° 0 mm 5 mps 746 mmHg 13%
    09:00 +29°C° 0 mm 5 mps 747 mmHg 11%
    10:00 +32°C° 0 mm 5 mps 746 mmHg 10%
    11:00 +34°C° 0 mm 5 mps 746 mmHg 9%
    12:00 +37°C° 0 mm 4 mps 745 mmHg 8%
    13:00 +37°C° 0 mm 4 mps 745 mmHg 8%
    14:00 +38°C° 0 mm 3 mps 744 mmHg 8%
    15:00 +38°C° 0 mm 3 mps 743 mmHg 8%
    16:00 +36°C° 0 mm 3 mps 743 mmHg 9%
    17:00 +34°C° 0 mm 3 mps 744 mmHg 10%
    18:00 +31°C° 0 mm 3 mps 744 mmHg 11%
    19:00 +30°C° 0 mm 3 mps 744 mmHg 12%
    20:00 +28°C° 0 mm 3 mps 745 mmHg 13%
    21:00 +27°C° 0 mm 3 mps 745 mmHg 13%
    22:00 +27°C° 0 mm 3 mps 745 mmHg 14%
    23:00 +26°C° 0 mm 3 mps 745 mmHg 15%

    21 Diciembre, Viernes

    Tiempo Temperatura Precipitaciones Viento Presión Humedad
    00:00 +25°C° 0 mm 3 mps 745 mmHg 16%
    01:00 +25°C° 0 mm 3 mps 745 mmHg 17%
    02:00 +24°C° 0 mm 3 mps 745 mmHg 18%
    03:00 +22°C° 0 mm 3 mps 744 mmHg 19%
    04:00 +22°C° 0 mm 3 mps 745 mmHg 20%
    05:00 +21°C° 0 mm 3 mps 745 mmHg 21%
    06:00 +21°C° 0 mm 3 mps 745 mmHg 22%
    07:00 +23°C° 0 mm 4 mps 746 mmHg 19%
    08:00 +26°C° 0 mm 5 mps 746 mmHg 17%
    09:00 +29°C° 0 mm 5 mps 747 mmHg 15%
    10:00 +32°C° 0 mm 5 mps 746 mmHg 13%
    11:00 +34°C° 0 mm 5 mps 746 mmHg 11%
    12:00 +36°C° 0 mm 4 mps 745 mmHg 10%
    13:00 +37°C° 0 mm 4 mps 744 mmHg 9%
    14:00 +37°C° 0 mm 4 mps 743 mmHg 9%
    15:00 +38°C° 0 mm 3 mps 743 mmHg 8%
    16:00 +36°C° 0 mm 3 mps 743 mmHg 9%
    17:00 +34°C° 0 mm 3 mps 743 mmHg 11%
    18:00 +31°C° 0 mm 3 mps 744 mmHg 12%
    19:00 +30°C° 0 mm 3 mps 744 mmHg 13%
    20:00 +29°C° 0 mm 4 mps 745 mmHg 14%
    21:00 +28°C° 0 mm 4 mps 745 mmHg 14%
    22:00 +28°C° 0 mm 4 mps 745 mmHg 16%
    23:00 +27°C° 0 mm 4 mps 745 mmHg 17%

    22 Diciembre, Sábado

    Tiempo Temperatura Precipitaciones Viento Presión Humedad
    00:00 +26°C° 0 mm 4 mps 745 mmHg 18%
    01:00 +26°C° 0 mm 4 mps 744 mmHg 18%
    02:00 +25°C° 0 mm 4 mps 744 mmHg 19%
    03:00 +23°C° 0 mm 4 mps 744 mmHg 19%
    04:00 +23°C° 0 mm 4 mps 744 mmHg 20%
    05:00 +22°C° 0 mm 4 mps 745 mmHg 21%
    06:00 +21°C° 0 mm 4 mps 745 mmHg 21%
    07:00 +23°C° 0 mm 4 mps 745 mmHg 20%
    08:00 +26°C° 0 mm 5 mps 746 mmHg 18%
    09:00 +28°C° 0 mm 6 mps 747 mmHg 16%
    10:00 +30°C° 0 mm 5 mps 746 mmHg 14%
    11:00 +33°C° 0 mm 5 mps 745 mmHg 12%
    12:00 +35°C° 0 mm 5 mps 745 mmHg 11%
    13:00 +36°C° 0 mm 5 mps 744 mmHg 10%
    14:00 +36°C° 0 mm 4 mps 743 mmHg 9%
    15:00 +37°C° 0 mm 4 mps 743 mmHg 9%
    16:00 +35°C° 0 mm 4 mps 743 mmHg 10%
    17:00 +33°C° 0 mm 3 mps 743 mmHg 11%
    18:00 +30°C° 0 mm 3 mps 743 mmHg 13%
    19:00 +29°C° 0 mm 3 mps 744 mmHg 13%
    20:00 +28°C° 0 mm 4 mps 744 mmHg 14%
    21:00 +26°C° 0 mm 4 mps 745 mmHg 15%
    22:00 +26°C° 0 mm 4 mps 745 mmHg 15%
    23:00 +25°C° 0 mm 4 mps 744 mmHg 16%
    Mostrar más